DW0494 Weather Reports


Display with metric or nautical units.
time (UTC)temp
F
wind
direction
speed
MPH
gust
MPH
rain 1hr
in
rain 24hr
in
rain mn
in
humidity
%
barometer
mb
20260504050405 56 60 0.0 2.0 0.00 0.00 0.00 55 1022.6
20260504045905 55 40 0.0 2.0 0.00 0.00 0.00 58 1022.6
20260504045404 56 44 1.0 2.0 0.00 0.00 0.00 54 1022.6
20260504044905 55 44 0.0 1.0 0.00 0.00 0.00 60 1022.6
20260504044404 54 44 0.0 3.0 0.00 0.00 0.00 59 1022.6
20260504043905 52 44 0.0 3.0 0.00 0.00 0.00 60 1022.5
20260504043404 52 25 0.0 3.0 0.00 0.00 0.00 63 1022.5
20260504042906 51 54 1.0 2.0 0.00 0.00 0.00 63 1022.5
20260504042406 51 55 1.0 1.0 0.00 0.00 0.00 64 1022.5
20260504041905 49 54 0.0 1.0 0.00 0.01 0.00 70 1022.6
20260504041404 47 54 0.0 1.0 0.00 0.03 0.00 73 1022.5
20260504040904 46 54 0.0 1.0 0.00 0.04 0.00 72 1022.4
20260504040403 46 54 0.0 1.0 0.00 0.04 0.00 73 1022.4
20260504035905 46 54 0.0 1.0 0.00 0.04 0.00 71 1022.4
20260504035405 47 53 0.0 1.0 0.00 0.04 0.00 70 1022.3
20260504034904 47 48 0.0 1.0 0.00 0.04 0.00 71 1022.2
20260504034406 46 49 1.0 2.0 0.00 0.04 0.00 71 1022.2
20260504033904 46 49 0.0 2.0 0.00 0.04 0.00 72 1022.2
20260504032404 45 51 0.0 1.0 0.00 0.04 0.00 75 1022.1
20260504031903 46 51 0.0 1.0 0.00 0.04 0.00 76 1022.1
20260504031403 46 51 0.0 2.0 0.00 0.04 0.00 76 1022.1
20260504030904 45 52 0.0 2.0 0.00 0.04 0.00 76 1022.1
20260504025904 45 42 0.0 1.0 0.00 0.04 0.00 76 1022.0
20260504025405 45 28 0.0 1.0 0.00 0.04 0.00 75 1022.1
20260504024904 45 28 0.0 1.0 0.00 0.04 0.00 74 1022.1
20260504024403 45 27 0.0 1.0 0.00 0.04 0.00 73 1022.2
20260504023903 44 27 0.0 1.0 0.00 0.04 0.00 72 1022.2
20260504023403 44 225 0.0 1.0 0.00 0.04 0.00 71 1022.2
20260504022903 45 224 0.0 1.0 0.00 0.04 0.00 72 1022.2
20260504022403 45 224 0.0 1.0 0.00 0.04 0.00 72 1022.1
20260504021905 46 224 0.0 3.0 0.00 0.04 0.00 71 1022.0
20260504021405 46 224 0.0 3.0 0.00 0.04 0.00 70 1022.0
20260504020903 47 28 0.0 3.0 0.00 0.04 0.00 69 1022.0
20260504014903 48 50 2.0 3.0 0.00 0.04 0.00 66 1022.0
20260504014405 48 61 2.0 2.0 0.00 0.04 0.00 65 1022.0
20260504013904 49 51 1.0 2.0 0.00 0.04 0.00 64 1022.0
20260504013405 49 47 1.0 2.0 0.00 0.04 0.00 64 1021.9
20260504012905 48 44 1.0 2.0 0.00 0.04 0.00 65 1021.9
20260504012405 48 44 1.0 2.0 0.00 0.04 0.00 65 1021.9
20260504011904 47 44 1.0 3.0 0.00 0.04 0.00 66 1021.9
20260504011403 47 52 1.0 3.0 0.00 0.04 0.00 66 1021.9
20260504010905 47 51 2.0 3.0 0.00 0.04 0.00 67 1021.8
20260504010404 47 57 1.0 2.0 0.00 0.04 0.00 67 1021.8
20260504005904 47 53 2.0 2.0 0.00 0.04 0.00 66 1021.7
20260504005404 48 47 2.0 2.0 0.00 0.04 0.00 66 1021.7
20260504004905 48 57 1.0 2.0 0.00 0.04 0.00 64 1021.7
20260504004403 49 56 1.0 2.0 0.00 0.04 0.00 63 1021.7
20260504003904 48 60 1.0 3.0 0.00 0.04 0.00 64 1021.7
20260504003405 48 57 2.0 3.0 0.00 0.04 0.00 64 1021.7
20260504002404 48 51 2.0 3.0 0.00 0.04 0.00 66 1021.7
20260504001905 48 52 2.0 3.0 0.00 0.04 0.00 66 1021.8
20260504001404 48 49 1.0 2.0 0.00 0.04 0.00 67 1021.8
20260504000404 49 68 0.0 1.0 0.00 0.04 0.00 66 1021.7
20260503235404 50 55 1.0 2.0 0.00 0.05 0.00 63 1021.8
20260503234904 50 57 1.0 2.0 0.00 0.05 0.00 64 1021.8
20260503234404 50 57 1.0 2.0 0.00 0.05 0.00 64 1021.7
20260503233905 49 47 1.0 2.0 0.00 0.05 0.00 64 1021.7
20260503233404 49 27 1.0 3.0 0.00 0.05 0.00 65 1021.7
20260503232404 49 17 2.0 3.0 0.00 0.05 0.00 65 1021.8
20260503231904 49 27 2.0 3.0 0.00 0.05 0.00 66 1021.8
20260503231403 49 21 2.0 3.0 0.00 0.05 0.00 66 1021.9
20260503225903 48 39 1.0 2.0 0.00 0.05 0.00 67 1022.0
20260503225403 48 32 0.0 1.0 0.00 0.05 0.00 67 1022.0
20260503224905 49 20 0.0 2.0 0.00 0.05 0.00 66 1021.9
20260503224405 49 20 0.0 2.0 0.00 0.05 0.00 65 1021.8
20260503223904 49 17 1.0 2.0 0.00 0.05 0.00 63 1021.8
20260503223404 49 9 1.0 2.0 0.00 0.05 0.00 62 1021.8
20260503222904 49 34 0.0 1.0 0.00 0.05 0.00 63 1021.7
20260503222405 49 39 0.0 1.0 0.00 0.06 0.00 63 1021.7
20260503221904 49 39 0.0 0.0 0.00 0.06 0.00 63 1021.7
20260503221403 49 39 0.0 1.0 0.00 0.06 0.00 62 1021.7
20260503215904 50 40 0.0 1.0 0.00 0.07 0.00 60 1021.7
20260503215404 51 40 0.0 1.0 0.00 0.07 0.00 61 1021.7
20260503214905 52 30 0.0 2.0 0.00 0.07 0.00 57 1021.6
20260503214404 52 30 1.0 2.0 0.00 0.07 0.00 55 1021.6
20260503213404 53 60 1.0 2.0 0.00 0.07 0.00 54 1021.6
20260503212903 52 46 1.0 2.0 0.00 0.07 0.00 55 1021.5
20260503212404 52 50 1.0 2.0 0.00 0.07 0.00 56 1021.6
20260503211904 52 56 1.0 2.0 0.00 0.07 0.00 56 1021.5
20260503210906 52 60 1.0 2.0 0.00 0.07 0.00 57 1021.5
20260503205405 53 40 1.0 2.0 0.00 0.07 0.07 55 1021.6
20260503204904 52 49 1.0 2.0 0.00 0.07 0.07 55 1021.6
20260503203903 52 77 1.0 2.0 0.00 0.07 0.07 57 1021.6
20260503203403 52 75 1.0 1.0 0.00 0.07 0.07 56 1021.7
20260503202406 52 67 0.0 2.0 0.00 0.07 0.07 58 1021.6
20260503201904 52 89 0.0 2.0 0.00 0.07 0.07 59 1021.5
20260503201404 52 50 0.0 5.0 0.00 0.07 0.07 59 1021.6
20260503200904 53 47 2.0 5.0 0.00 0.07 0.07 54 1021.6
20260503200404 53 46 1.0 3.0 0.00 0.07 0.07 56 1021.5
20260503195904 52 50 2.0 3.0 0.00 0.07 0.07 55 1021.6
20260503195404 52 40 1.0 3.0 0.00 0.07 0.07 57 1021.6
20260503194904 52 51 2.0 3.0 0.00 0.07 0.07 57 1021.5
20260503193404 53 58 1.0 2.0 0.00 0.07 0.07 57 1021.5
20260503191905 53 51 1.0 3.0 0.00 0.07 0.07 56 1021.5
20260503191404 53 50 1.0 3.0 0.00 0.07 0.07 56 1021.5
20260503190404 54 64 0.0 2.0 0.00 0.07 0.07 57 1021.5
20260503185405 54 53 1.0 3.0 0.00 0.07 0.07 55 1021.4
20260503184905 54 49 2.0 3.0 0.00 0.07 0.07 55 1021.4
20260503184403 54 97 0.0 2.0 0.00 0.07 0.07 56 1021.2
20260503183904 55 88 0.0 2.0 0.00 0.07 0.07 53 1021.2
20260503183404 55 39 0.0 2.0 0.00 0.07 0.07 55 1021.1
20260503182905 55 45 1.0 2.0 0.00 0.07 0.07 52 1021.1
20260503182406 55 77 0.0 1.0 0.00 0.07 0.07 52 1021.1
20260503181904 56 55 0.0 3.0 0.00 0.07 0.07 51 1020.9
20260503181405 56 34 0.0 5.0 0.00 0.07 0.07 50 1020.8
20260503180904 56 63 2.0 5.0 0.00 0.07 0.07 49 1020.7
20260503180404 56 46 2.0 6.0 0.00 0.07 0.07 49 1020.6
20260503175904 56 36 2.0 7.0 0.00 0.07 0.07 49 1020.6
20260503175405 57 40 2.0 8.0 0.00 0.07 0.07 49 1020.6
20260503174906 57 25 3.0 8.0 0.00 0.07 0.07 48 1020.6
20260503174404 57 41 3.0 7.0 0.00 0.07 0.07 48 1020.5
20260503172903 58 36 2.0 5.0 0.00 0.07 0.07 48 1020.4
20260503171904 58 43 3.0 5.0 0.00 0.07 0.07 46 1020.3
20260503171405 58 42 1.0 7.0 0.00 0.07 0.07 47 1020.3
20260503170904 59 38 2.0 7.0 0.00 0.07 0.07 46 1020.2
20260503170404 59 46 2.0 6.0 0.00 0.07 0.07 47 1020.1
20260503150905 64 313 1.0 7.0 0.00 0.07 0.07 39 1020.0
20260503131410 63 238 3.0 10.0 0.00 0.07 0.07 43 1020.6
20260503130904 63 253 3.0 10.0 0.00 0.07 0.07 44 1020.6
20260503130404 64 213 2.0 7.0 0.00 0.07 0.07 44 1020.6
20260503110403 61 228 1.0 7.0 0.00 0.07 0.07 50 1021.3
20260503090405 55 265 1.0 7.0 0.00 0.07 0.07 63 1022.1
20260503081405 59 20 1.0 3.0 0.00 0.07 0.07 52 1022.0
20260503080905 59 8 1.0 3.0 0.00 0.07 0.07 52 1022.0
20260503080404 59 353 1.0 3.0 0.00 0.07 0.07 51 1021.9
20260503072907 53 261 0.0 3.0 0.00 0.07 0.07 62 1022.0
20260503072406 53 280 1.0 6.0 0.00 0.07 0.07 62 1022.0
20260503071904 53 15 0.0 6.0 0.00 0.07 0.07 64 1022.0
20260503071403 53 23 3.0 7.0 0.00 0.07 0.07 62 1022.0
20260503070905 53 16 2.0 7.0 0.00 0.07 0.07 61 1022.0
20260503070404 52 20 2.0 6.0 0.00 0.07 0.07 61 1021.9